DECAYED

STARLINK-2295, 48036 (Decayed)

Orbit data source: Space-Track

STARLINK-2295, 48036 was a payload satellite owned by SpaceX/Seattle (US) in LEO that was launched on Wed, 24 Mar 2021 UTC via an FALCON 9 launch vehicle from the Air Force Eastern Test Range (AFETR). Payload-class satellites include a variety of spacecraft equipped with specific instruments for various scientific and technological missions. These include communications satellites like Starlink; space stations such as the ISS; scientific satellites like the Hubble; Earth observation satellites from companies like Planet Labs, Umbra, and HawkEye 360; GPS; miniature CubeSats for education and research; and military/defense satellites.

Not visible in the next 10 days
Identifier
48036, 2021-024BM
Orbit
Decayed
Country
Flag of USUS
Related business
Manufacturer
SpaceX/Seattle
Mission
Decayed Commercial Communications
Bus & Motor
STARLINK, Unknown motor
Mass
260 kg wet, ~248 kg dry
Launch date (UTC)
2021-03-24 (5 years ago)
Launch vehicle
FALCON 9
Launch site
Air Force Eastern Test Range (AFETR)
Object type
Payload
Rocket body
Debris
Shape & HBR
Box + 1 Pan, 10.1 m
Radar Cross Section
13.562 m², Large (>1 m²)

Expand to show TLE details & history
Last TLE update: 1 year ago

TLE from 1 year ago
0 STARLINK-2295
1 48036U 21024BM  25099.79308686  .20685346  12505-4  52837-3 0  9991
2 48036  53.0271 335.5745 0007985 267.6910 136.9803 16.45339422224549
Epoch: 2025-04-09T19:02Z
TLE epoch observation values (Epoch: 2025-04-09T19:02:02.704Z)
Latitude
34.33014°
Longitude
-117.47091°
Altitude
157.884 km
Speed
7.814 km/s
True Right ascension
00h 25m 15s
True Declination
34° 09' 20"
Sunlit
Object was in daylight at epoch
Visualization orbit readout
Latitude
Unknown
Longitude
Unknown
Altitude
Unknown
Speed
Unknown
Apparent Right ascension
Unknown
Apparent Declination
Unknown
Sunlit
N/A
Visualization observer readout
Local Sidereal Time
15:07:15
Azimuth
Unknown
Elevation
Unknown
Doppler factor
Unknown
Orbital elements
Apogee altitude
157.143 km
Perigee altitude
146.714 km
Semi-major axis
6,530.066 km
Eccentricity
0.0008
Inclination
53.0271°
RAAN
335.5745°
Arg. of periapsis
267.691°
True anomaly
137.04268°
Mean anomaly
136.9803°
Eccentric anomaly
137.0115°
Mean motion
4.11308 °/min
Orbital period
87.53 mins
BSTAR
0.00052837
Loading maneuver chart data...
Computing Atmospheric mass density...

Documentation

Showing up to 5 results
|